Flag for U.S.A. Weather past 2 weeks in Bloomington, Indiana, U.S.A.

Now
68 °F

Fog.


Feels Like: 68 °F
Forecast: 65 / 84 °F
Wind: No wind

Location: Monroe County Airport

Current Time: Sep 2, 2014 at 10:14:33 PM

Latest Report: Sep 2, 2014 at 9:01 PM


Visibility: 4 mi

Pressure: 29.97 "Hg

Humidity: 96%

Dew point: 67 °F

Location of BloomingtonLocation

Historic Weather in Bloomington — Graph

°F

Bloomington temperature yesterday

Maximum temperature yesterday: 81 °F (at 2:53 PM)
Minimum temperature yesterday: 71 °F (at 12:53 AM)
Average temperature yesterday: 75 °F

Past Weeks' High & Low Weather Summary

 TemperatureHumidityPressure
High91 °F (Aug 25, 4:53 PM)97% (Aug 23, 1:53 AM)30.12 "Hg (Aug 23, 1:53 AM)
Low64 °F (Aug 19, 6:53 AM)53% (Aug 28, 3:53 PM)29.78 "Hg (Aug 19, 5:53 PM)
Average76 °F82%29.98 "Hg
* Reported Aug 18 8:53 PM — Sep 2 8:53 PM, Bloomington, Weather by CustomWeather, © 2014

Note: Actual official high and low records may vary slightly from our data, if they occured in-between our weather recording intervals... More about our weather records

Advertising

Bloomington weather history for previous 24 hours

 ConditionsComfort  
Time TempWeatherWind HumidityBarometerVisibility
8:53 PM
Sep 2
68 °FFog.No wind96%29.95 "Hg2 mi
7:53 PM73 °FSunny.3 mph88%29.93 "Hg10 mi
6:53 PM77 °FSunny.3 mph77%29.92 "Hg10 mi
5:53 PM76 °FBroken clouds.3 mph80%29.92 "Hg10 mi
5:04 PM76 °FBroken clouds.7 mph80%29.94 "Hg10 mi
4:53 PM76 °FScattered clouds.6 mph80%29.92 "Hg10 mi
3:53 PM76 °FScattered clouds.7 mph80%29.94 "Hg10 mi
2:53 PM74 °FMore clouds than sun.7 mph85%29.95 "Hg10 mi
1:53 PM72 °FBroken clouds.7 mph93%29.94 "Hg10 mi
12:53 PM72 °FFog.3 mph91%29.95 "Hg5 mi
11:53 AM71 °FLight rain. Fog.7 mph90%29.96 "Hg5 mi
10:53 AM73 °FScattered clouds.8 mph84%29.93 "Hg10 mi
10:04 AM69 °FPartly sunny.12 mph90%29.96 "Hg10 mi
9:53 AM69 °FBroken clouds.10 mph90%29.93 "Hg10 mi
8:53 AM67 °FLight rain. More clouds than sun.5 mph93%29.94 "Hg10 mi
8:01 AM66 °FPartly cloudy.6 mph96%29.95 "Hg10 mi
6:53 AM66 °FLight rain. Passing clouds.7 mph96%29.93 "Hg10 mi
6:02 AM66 °FRain. Fog.5 mph96%30.00 "Hg4 mi
5:53 AM66 °FHeavy rain. Fog.3 mph96%29.97 "Hg2 mi
5:01 AM67 °FStrong thunderstorms. Fog.6 mph93%29.98 "Hg5 mi
4:53 AM67 °FRain. Mostly cloudy.6 mph93%29.94 "Hg8 mi
3:58 AM67 °FThundershowers. Fog.12 mph93%29.97 "Hg5 mi
3:03 AM73 °FStrong thunderstorms. Fog.10 mph94%29.94 "Hg1 mi
2:56 AM74 °FStrong thunderstorms. Fog.6 mph91%29.95 "Hg2 mi
1:53 AM74 °FOvercast.6 mph91%29.93 "Hg10 mi
12:53 AM73 °FClear.6 mph90%29.91 "Hg10 mi
11:53 PM
Sep 1
74 °FOvercast.7 mph91%29.92 "Hg10 mi
10:53 PM73 °FClear.7 mph90%29.92 "Hg10 mi
Weather by CustomWeather, © 2014

See weather overviewHow to use our weather pages